TimeCST,TemperatureF,Dew PointF,Humidity,Sea Level PressureIn,VisibilityMPH,Wind Direction,Wind SpeedMPH,Gust SpeedMPH,PrecipitationIn,Events,Conditions,WindDirDegrees,DateUTC
12:15 AM,50.0,24.8,37,29.96,10.0,South,8.1,16.1,N/A,,Drizzle,180,2013-02-19 06:15:00
12:35 AM,46.4,30.2,53,29.99,10.0,SSW,3.5,-,N/A,Rain,Rain,210,2013-02-19 06:35:00
12:55 AM,42.8,33.8,70,30.01,5.0,Calm,Calm,-,0.04,Rain,Rain,0,2013-02-19 06:55:00
1:15 AM,41.0,37.4,87,29.99,2.5,Calm,Calm,-,0.05,,Overcast,0,2013-02-19 07:15:00
1:35 AM,41.0,37.4,87,30.03,2.5,Calm,Calm,-,0.13,,Overcast,0,2013-02-19 07:35:00
1:55 AM,41.0,35.6,81,30.05,7.0,Calm,Calm,-,0.16,Rain,Light Rain,0,2013-02-19 07:55:00
2:15 AM,41.0,37.4,87,30.05,4.0,Calm,Calm,-,0.03,Rain,Rain,0,2013-02-19 08:15:00
2:35 AM,41.0,37.4,87,30.05,7.0,SE,3.5,-,0.06,Rain,Light Rain,140,2013-02-19 08:35:00
2:55 AM,41.0,37.4,87,30.02,7.0,SE,5.8,-,0.11,Rain,Light Rain,130,2013-02-19 08:55:00
3:15 AM,42.8,37.4,81,29.99,10.0,South,6.9,-,N/A,Rain,Light Rain,180,2013-02-19 09:15:00
3:35 AM,42.8,37.4,81,29.97,10.0,South,6.9,-,N/A,Rain,Light Rain,170,2013-02-19 09:35:00
3:55 AM,44.6,37.4,76,29.97,10.0,South,4.6,-,0.01,Rain,Light Rain,190,2013-02-19 09:55:00
4:15 AM,44.6,39.2,81,29.96,10.0,South,8.1,-,0.01,Rain,Light Rain,190,2013-02-19 10:15:00
4:35 AM,44.6,39.2,81,29.95,10.0,SSE,4.6,-,0.01,Rain,Rain,160,2013-02-19 10:35:00
4:55 AM,42.8,37.4,81,29.96,10.0,South,5.8,-,0.01,,Overcast,190,2013-02-19 10:55:00
5:15 AM,42.8,37.4,81,29.97,10.0,South,6.9,-,N/A,,Mostly Cloudy,190,2013-02-19 11:15:00
5:35 AM,42.8,37.4,81,29.96,10.0,SSE,3.5,-,N/A,,Mostly Cloudy,160,2013-02-19 11:35:00
5:55 AM,42.8,37.4,81,29.98,10.0,South,4.6,-,N/A,,Overcast,180,2013-02-19 11:55:00
6:35 AM,42.8,39.2,87,29.99,7.0,Calm,Calm,-,N/A,Rain,Rain,0,2013-02-19 12:35:00
6:55 AM,42.8,39.2,87,30.00,7.0,Calm,Calm,-,0.01,,Overcast,0,2013-02-19 12:55:00
7:15 AM,42.8,39.2,87,30.01,1.5,Calm,Calm,-,N/A,,Overcast,0,2013-02-19 13:15:00
7:35 AM,42.8,41.0,93,30.03,1.5,Calm,Calm,-,N/A,,Overcast,0,2013-02-19 13:35:00
7:55 AM,42.8,41.0,93,30.04,2.5,Calm,Calm,-,N/A,,Overcast,0,2013-02-19 13:55:00
8:15 AM,42.8,41.0,93,30.05,5.0,Calm,Calm,-,N/A,,Overcast,0,2013-02-19 14:15:00
8:35 AM,42.8,41.0,93,30.05,7.0,SSW,3.5,-,N/A,,Overcast,210,2013-02-19 14:35:00
8:55 AM,44.6,41.0,87,30.06,10.0,SW,5.8,-,N/A,,Overcast,220,2013-02-19 14:55:00
9:15 AM,44.6,42.8,93,30.06,7.0,West,8.1,-,N/A,,Overcast,260,2013-02-19 15:15:00
9:35 AM,44.6,41.0,87,30.06,10.0,West,16.1,19.6,N/A,,Overcast,270,2013-02-19 15:35:00
9:55 AM,44.6,39.2,81,30.08,10.0,West,11.5,18.4,N/A,,Mostly Cloudy,270,2013-02-19 15:55:00
10:15 AM,46.4,39.2,76,30.08,10.0,West,10.4,-,N/A,,Scattered Clouds,260,2013-02-19 16:15:00
10:35 AM,46.4,35.6,66,30.09,10.0,WNW,11.5,-,N/A,,Scattered Clouds,300,2013-02-19 16:35:00
10:55 AM,48.2,33.8,58,30.09,10.0,WNW,8.1,17.3,N/A,,Scattered Clouds,290,2013-02-19 16:55:00
11:15 AM,48.2,35.6,62,30.09,10.0,WNW,10.4,18.4,N/A,,Scattered Clouds,300,2013-02-19 17:15:00
11:35 AM,50.0,32.0,50,30.08,10.0,West,11.5,16.1,N/A,,Scattered Clouds,280,2013-02-19 17:35:00
11:55 AM,50.0,32.0,50,30.08,10.0,West,11.5,-,N/A,,Clear,280,2013-02-19 17:55:00
12:35 PM,50.0,28.4,43,30.07,10.0,West,15.0,23.0,N/A,,Clear,280,2013-02-19 18:35:00
12:55 PM,51.8,28.4,41,30.07,10.0,WNW,11.5,20.7,N/A,,Clear,300,2013-02-19 18:55:00
1:15 PM,51.8,28.4,41,30.06,10.0,WNW,15.0,19.6,N/A,,Clear,290,2013-02-19 19:15:00
1:35 PM,51.8,28.4,41,30.05,10.0,WNW,10.4,21.9,N/A,,Clear,290,2013-02-19 19:35:00
1:55 PM,51.8,26.6,38,30.06,10.0,West,16.1,27.6,N/A,,Clear,270,2013-02-19 19:55:00
2:15 PM,51.8,21.2,30,30.07,10.0,West,19.6,26.5,N/A,,Clear,260,2013-02-19 20:15:00
2:35 PM,51.8,19.4,28,30.07,10.0,West,18.4,24.2,N/A,,Clear,270,2013-02-19 20:35:00
2:55 PM,51.8,19.4,28,30.08,10.0,West,11.5,23.0,N/A,,Clear,280,2013-02-19 20:55:00
3:15 PM,51.8,17.6,26,30.08,10.0,West,13.8,21.9,N/A,,Clear,280,2013-02-19 21:15:00
3:35 PM,51.8,17.6,26,30.08,10.0,West,8.1,-,N/A,,Clear,270,2013-02-19 21:35:00
3:55 PM,51.8,17.6,26,30.09,10.0,West,13.8,23.0,N/A,,Clear,280,2013-02-19 21:55:00
4:15 PM,50.0,14.0,24,30.10,10.0,West,10.4,20.7,N/A,,Clear,280,2013-02-19 22:15:00
4:35 PM,50.0,14.0,24,30.10,10.0,WNW,10.4,23.0,N/A,,Clear,290,2013-02-19 22:35:00
4:55 PM,48.2,14.0,25,30.11,10.0,West,11.5,20.7,N/A,,Clear,280,2013-02-19 22:55:00
5:15 PM,46.4,14.0,27,30.12,10.0,West,9.2,-,N/A,,Clear,280,2013-02-19 23:15:00
5:35 PM,46.4,12.2,25,30.13,10.0,WNW,8.1,-,N/A,,Clear,290,2013-02-19 23:35:00
6:35 PM,42.8,10.4,27,30.14,10.0,NW,8.1,-,N/A,,Clear,310,2013-02-20 00:35:00
6:55 PM,42.8,10.4,27,30.15,10.0,WNW,5.8,-,N/A,,Clear,290,2013-02-20 00:55:00
7:15 PM,42.8,10.4,27,30.15,10.0,West,3.5,-,N/A,,Clear,280,2013-02-20 01:15:00
7:55 PM,35.6,19.4,52,30.16,10.0,Calm,Calm,-,N/A,,Clear,0,2013-02-20 01:55:00
8:15 PM,33.8,19.4,56,30.16,10.0,Calm,Calm,-,N/A,,Clear,0,2013-02-20 02:15:00
8:35 PM,33.8,19.4,56,30.16,10.0,Calm,Calm,-,N/A,,Clear,0,2013-02-20 02:35:00
8:55 PM,33.8,21.2,60,30.17,10.0,Calm,Calm,-,N/A,,Clear,0,2013-02-20 02:55:00
9:15 PM,32.0,21.2,64,30.20,10.0,Calm,Calm,-,N/A,,Clear,0,2013-02-20 03:15:00
9:55 PM,32.0,23.0,69,30.21,10.0,Calm,Calm,-,N/A,,Clear,0,2013-02-20 03:55:00
10:15 PM,32.0,21.2,64,30.21,10.0,Calm,Calm,-,N/A,,Clear,0,2013-02-20 04:15:00
10:35 PM,32.0,21.2,64,30.20,10.0,Calm,Calm,-,N/A,,Clear,0,2013-02-20 04:35:00
10:55 PM,35.6,17.6,48,30.21,10.0,Calm,Calm,-,N/A,,Clear,0,2013-02-20 04:55:00
11:15 PM,32.0,19.4,60,30.22,10.0,Calm,Calm,-,N/A,,Clear,0,2013-02-20 05:15:00
11:35 PM,32.0,19.4,60,30.21,10.0,Calm,Calm,-,N/A,,Clear,0,2013-02-20 05:35:00